Location: Unspecified
(0.0000°N, 0.0000°E)
Time: 17:54:42
(UTC+00:00)

STARLINK 1062 - Pass Details

Date: 23 January 2020
Orbit: 548 x 551 km, 53.0° (Epoch: 17 January)

Event Time Altitude Azimuth Distance (km) Brightness Sun altitude
Exits shadow 04:59:26 31° 262° (W) 967 4.4 -17.0°
Maximum altitude 05:00:42 40° 304° (NW) 810 4.0 -16.7°
Drops below altitude 10° 05:04:34 10° 14° (NNE) 1,807 6.2 -15.8°
Sets 05:06:53 0° 22° (NNE) 2,697 7.2 -15.2°
